Location: Bittelbronn
(48.4454°N, 8.5870°E)
Time: 13:18:25
(UTC+00:00)

DMSP 5D-2 F13 DEB - Visible Passes

Search period start: 03 October 2024 00:00
Search period end: 13 October 2024 00:00
Orbit: 820 x 994 km, 98.8° (Epoch: 30 September)

Date Brightness Start Highest point End Pass type
(mag) Time Alt. Az. Time Alt. Az. Time Alt. Az.
03 Oct ? 20:20:38 10° NNE 20:22:31 20° NNE 20:22:31 20° NNE visible
03 Oct ? 22:02:51 10° N 22:05:41 24° NNW 22:05:41 24° NNW visible
04 Oct ? 20:25:15 10° NNE 20:27:03 20° NNE 20:27:03 20° NNE visible
04 Oct ? 22:07:33 10° N 22:10:14 23° NNW 22:10:14 23° NNW visible
05 Oct ? 20:29:52 10° NNE 20:31:35 20° NNE 20:31:35 20° NNE visible
05 Oct ? 22:12:15 10° N 22:14:46 21° NNW 22:14:46 21° NNW visible
06 Oct ? 20:34:28 10° NNE 20:36:06 19° NNE 20:36:06 19° NNE visible
06 Oct ? 22:16:57 10° N 22:19:17 20° NNW 22:19:17 20° NNW visible
07 Oct ? 20:39:04 10° NNE 20:40:37 19° NNE 20:40:37 19° NNE visible
07 Oct ? 22:21:39 10° N 22:23:48 19° NNW 22:23:48 19° NNW visible
08 Oct ? 20:43:40 10° NNE 20:45:07 18° NNE 20:45:07 18° NNE visible
08 Oct ? 22:26:20 10° N 22:28:18 18° NNW 22:28:18 18° NNW visible
09 Oct ? 20:48:15 10° NNE 20:49:37 17° NNE 20:49:37 17° NNE visible
09 Oct ? 22:31:01 10° N 22:32:47 16° NNW 22:32:47 16° NNW visible
10 Oct ? 20:52:51 10° NNE 20:54:05 17° NNE 20:54:05 17° NNE visible
10 Oct ? 22:35:43 10° N 22:37:16 15° NNW 22:37:16 15° NNW visible
11 Oct ? 20:57:25 10° NNE 20:58:33 16° NNE 20:58:33 16° NNE visible
11 Oct ? 22:40:24 10° N 22:41:44 14° NNW 22:41:44 14° NNW visible
12 Oct ? 21:01:59 10° NNE 21:03:01 15° NNE 21:03:01 15° NNE visible
12 Oct ? 22:45:05 10° NNW 22:46:11 13° NNW 22:46:11 13° NNW visible
